Location: Livadia
(45.4833°N, 23.1333°E)
Time: 01:22:48
(UTC+00:00)

Daily predictions for brighter satellites

Satellite Brightness Start Highest point End
(mag) Time Altitude Azimuth Time Altitude Azimuth Time Altitude Azimuth
USA 267 4.1 01:28:28 10° NE 01:32:57 46° ENE 01:32:57 46° ENE
Cosmos 2333 Rocket 4.1 01:57:29 22° NNE 01:57:29 22° NNE 01:59:27 10° NNE
COSMOS 2455 4.1 02:01:57 33° NNE 02:01:57 33° NNE 02:05:13 10° NNE
ACS3 Solar Sail 2.8 02:00:22 10° NNE 02:03:45 36° NNE 02:03:45 36° NNE
USA 234 3.2 02:04:51 10° ESE 02:11:23 75° NE 02:11:31 75° NNE
Cosmos 2360 Rocket 3.6 02:17:23 28° N 02:17:23 28° N 02:20:05 10° NNE
Cosmos 2322 Rocket 3.7 02:17:43 26° N 02:17:43 26° N 02:20:12 10° NNE
Gbstr 26 Del rocket 4.5 02:17:12 40° ESE 02:17:12 40° ESE 02:21:33 10° ENE
SL-16 R/B 4.2 02:24:11 17° N 02:24:11 17° N 02:25:49 10° N
Cosmos 44 Rocket 4.4 02:26:24 39° NNE 02:27:02 41° NE 02:31:54 10° ESE
Cosmos 1943 Rocket 3.8 02:24:44 15° N 02:28:29 29° NE 02:33:14 10° ESE
ARGOS 3.1 02:29:25 10° NNE 02:34:51 83° E 02:34:51 83° E
PAYLOAD A 4.4 02:31:41 10° NNE 02:37:05 65° ESE 02:40:27 23° S
Cosmos 1140 Rocket 4.4 02:35:56 25° N 02:38:36 46° ENE 02:43:29 10° SE
ADEOS Rocket 3.6 02:33:37 10° N 02:38:45 48° NW 02:38:45 48° NW
NOSS 3-1 (C) 3.1 02:40:03 61° SE 02:40:19 62° ESE 02:45:44 10° NE
CZ-2C R/B 2.4 02:37:24 10° NNE 02:42:20 84° ENE 02:42:20 84° ENE
Cosmos 2100 Rocket 4.2 02:41:59 10° N 02:48:07 69° E 02:54:15 10° SSE
Cosmos 2219 Rocket 2.6 02:55:05 45° NNW 02:55:05 45° NNW 02:59:44 10° NNE
SL-24 R/B - RUBIN 2 4.2 02:58:33 53° NNW 02:58:33 53° NNW 03:02:59 10° NNE
USA 59 Rocket 0.9 03:05:03 28° NE 03:05:03 28° NE 03:06:33 10° NE
COSMOS 2428 2.8 02:59:23 17° SSW 03:03:46 78° ESE 03:09:28 10° NNE
Cosmos 1459 Rocket 4.0 03:03:11 10° N 03:09:36 89° E 03:15:57 10° S
Cosmos 2322 3.6 03:08:00 26° SSW 03:11:17 82° WNW 03:17:00 10° NNE
Meteor 2-21 4.3 03:07:59 10° S 03:14:04 83° W 03:20:11 10° N
SL-08 RB Rocket 3.6 03:10:55 10° N 03:15:24 58° WNW 03:15:42 57° W
Cosmos 1727 Rocket 3.9 03:09:57 10° SSW 03:16:02 59° WNW 03:22:11 10° N
FengYun 1-2 T 4.4 03:10:30 10° NNE 03:16:04 76° ESE 03:21:40 10° S
USA 267 3.6 03:11:38 10° NE 03:17:52 49° NNW 03:20:18 34° WNW
Cosmos 1725 Rocket 4.2 03:13:30 10° N 03:19:51 74° E 03:26:09 10° SSE
Cosmos 407 Rocket 4.1 03:15:22 10° NNW 03:20:24 54° ENE 03:25:23 10° SE
Cosmos 1023 Rocket 4.3 03:18:48 25° NNW 03:21:47 73° WSW 03:26:48 10° SSE
COSMO-SKYMED 1 3.8 03:17:59 10° SE 03:21:50 40° ENE 03:25:42 10° N
SKYMED 2 4.1 03:17:59 10° SSE 03:22:14 58° ENE 03:26:31 10° N
NOSS 3-1 (A) 3.5 03:19:57 10° SSW 03:24:27 56° ESE 03:29:48 10° NE
Cosmos 2228 Rocket 3.9 03:26:01 32° NW 03:26:01 32° NW 03:28:52 10° N
Cosmos 1802 Rocket 4.0 03:21:13 10° N 03:27:37 89° W 03:33:54 10° S
Cosmos 1269 Rocket 4.0 03:29:01 22° NW 03:32:21 56° WSW 03:37:29 10° S
NOSS 2-1 (E) 2.9 03:32:54 57° WNW 03:33:06 58° NW 03:36:12 10° NNE
Cosmos 2278 Rocket 2.2 03:29:56 10° NNW 03:35:38 84° ENE 03:41:17 10° SSE
Meteor 2-16 Rocket 4.4 03:30:37 10° S 03:36:42 90° SW 03:42:51 10° N
Cosmos 2173 Rocket 4.0 03:32:54 10° NNW 03:38:47 52° W 03:44:37 10° SSW
Cosmos 921 Rocket 4.3 03:40:15 24° SW 03:40:15 24° SW 03:42:50 10° SSW
Cosmos 2333 Rocket 4.0 03:39:30 14° NW 03:39:30 14° NW 03:42:16 10° N
Cosmos 1703 Rocket 3.4 03:35:12 10° SSW 03:39:31 72° W 03:43:55 10° N
Cosmos 2237 Rocket 2.6 03:34:26 10° SSW 03:40:01 64° ESE 03:45:38 10° NNE
Cosmos 1328 3.6 03:37:30 10° SSW 03:41:03 52° WNW 03:44:38 10° N
SL-08 R/B 4.5 03:35:50 10° N 03:41:59 86° E 03:48:10 10° S
Cosmos 2292 Rocket 3.7 03:41:44 10° S 03:45:49 89° E 03:51:10 10° N
COSMOS 2455 4.3 03:45:06 18° NW 03:46:13 19° NNW 03:50:22 10° N
Lacrosse 5 rocket 3.1 03:46:58 13° NNW 03:47:20 13° N 03:49:02 10° NNE
Cosmos 1939 Rocket 3.3 03:43:58 10° N 03:47:29 35° WNW 03:48:48 27° WSW
ACS3 Solar Sail 3.2 03:44:49 10° NNW 03:47:53 17° NW 03:47:53 17° NW
Meteor 1-24 Rocket 3.7 03:43:41 10° SSW 03:49:25 62° WNW 03:54:59 10° N
Cosmos 2369 Rocket 4.4 03:48:40 10° N 03:52:56 21° NE 03:57:11 10° E
USA 234 3.9 03:48:47 10° SSE 03:54:43 36° SW 03:58:53 18° WNW
BlueWalker 3 2.2 03:53:51 29° W 03:55:13 46° SW 03:58:41 10° SE
Cosmos 2123 Rocket 4.1 03:51:31 10° SSW 03:57:35 54° WNW 04:03:39 10° N
CZ-4 R/B 3.8 03:53:09 10° N 03:58:01 65° WNW 04:02:46 10° SSW
Helios 1A Rocket 2.5 03:55:32 10° S 03:58:52 53° W 04:02:11 10° NNW
Cosmos 2360 Rocket 4.0 03:59:08 13° NW 03:59:43 13° NW 04:02:22 10° N
Cosmos 2322 Rocket 4.0 03:59:31 12° NW 04:00:05 12° NW 04:02:15 10° NNW
Meteor 2-5 Rocket 3.9 03:54:28 10° SSW 04:00:17 57° WNW 04:06:04 10° N
CENTAUR R/B 4.4 03:53:18 10° NNW 04:00:30 36° NNE 04:08:45 10° E
USA 276 2.8 04:00:15 26° WSW 04:00:46 28° SSW 04:03:12 10° SSE
Cosmos 1782 Rocket 3.4 03:57:28 10° NNW 04:01:53 73° W 04:06:13 10° S
Gbstr 26 Del rocket 3.7 03:59:16 20° W 04:02:45 61° NNW 04:08:52 10° ENE
Cosmos 1420 Rocket 4.3 03:58:40 10° S 04:03:53 71° ESE 04:09:10 10° NNE
NOAA 12 4.1 04:00:06 10° N 04:05:24 67° WNW 04:10:39 10° SSW
BREEZE-M DEB (TANK) 4.3 03:54:58 14° W 04:07:08 89° NNW 04:11:26 10° E
Cosmos 44 Rocket 4.1 04:05:02 17° WNW 04:08:24 34° WSW 04:13:01 10° S
Cosmos 2016 Rocket 4.2 04:03:55 10° NNW 04:10:04 52° W 04:16:10 10° SSW
Cosmos 1943 Rocket 2.4 04:07:07 10° NW 04:12:25 48° WSW 04:17:39 10° S
NOSS 2-1 (C) 4.3 04:14:58 17° WNW 04:15:56 19° NW 04:18:16 10° N
Cosmos 2346 Rocket 4.5 04:10:32 10° S 04:16:42 89° ESE 04:22:51 10° N
CZ-2C R/B 4.0 04:17:03 10° NNW 04:19:49 15° WNW 04:21:33 13° W
Cosmos 1140 Rocket 4.5 04:15:56 10° NW 04:19:59 24° W 04:24:01 10° SSW
NOSS 2-1 (D) 4.4 04:19:05 15° WNW 04:20:02 17° NW 04:22:09 10° N
Cosmos 1300 Rocket 4.0 04:18:22 10° NNW 04:22:24 39° W 04:26:24 10° SSW
Cosmos 1812 3.1 04:23:09 10° N 04:25:59 46° ENE 04:28:48 10° SSE
Aureole 3 Rocket 3.6 04:21:40 10° N 04:26:00 79° E 04:32:03 10° S
Cosmos 2061 Rocket 4.1 04:24:06 10° NNW 04:30:07 54° W 04:36:06 10° SSW
NOSS 3-1 (C) 4.1 04:27:24 11° W 04:31:32 27° NNW 04:36:34 10° NNE
Iridium 4 Rocket 4.0 04:28:55 10° NNW 04:32:26 25° W 04:35:50 10° SW
SJ 16-02 1.5 04:30:10 10° NNW 04:34:29 75° ENE 04:38:45 10° SSE
CBERS-1 4.1 04:31:05 10° NNE 04:36:15 89° WNW 04:41:21 10° SSW
Orbus 7S? 3.5 04:31:30 10° WSW 04:36:56 52° NW 04:39:54 10° NE
SL-16 R/B 3.2 04:32:44 10° S 04:38:14 54° ESE 04:43:46 10° NE
In-Cosmos 22 Rocket 4.4 04:33:31 10° S 04:39:19 89° E 04:45:11 10° N
Cosmos 2219 Rocket 4.0 04:37:47 10° NW 04:39:37 11° NW 04:41:27 10° NNW
IRS-1D 4.4 04:36:05 10° N 04:40:11 26° WNW 04:44:15 10° WSW
Cosmos 1190 Rocket 4.0 04:35:04 10° NNW 04:40:19 68° WSW 04:45:30 10° S
Cosmos 676 Rocket 4.2 04:36:02 10° NNW 04:41:19 78° ENE 04:46:31 10° SSE
Cosmos 1378 Rocket 3.8 04:37:35 10° S 04:41:50 73° E 04:46:07 10° NNE
SWARM C 4.5 04:39:35 10° S 04:42:52 67° W 04:46:11 10° N
SWARM A 4.2 04:39:39 10° S 04:42:58 81° W 04:46:17 10° N
Cosmos 2056 Rocket 3.6 04:39:18 10° SSW 04:44:42 85° WNW 04:50:08 10° NNE
BREEZE-M DEB (TANK) 3.7 04:44:39 10° SW 04:47:09 37° SE 04:51:43 10° ENE
COSMOS 2428 3.9 04:44:23 10° W 04:48:39 21° NW 04:52:56 10° N
Cosmos 1869 3.3 04:45:31 10° NNW 04:48:52 44° W 04:52:11 10° SSW
